Location: �perlecques
(50.8057°N, 2.1521°E)
Time: 05:47:44
(UTC+00:00)

In-Cosmos 22 Rocket - Pass Details

Date: 09 April 2020
Orbit: 790 x 888 km, 81.2° (Epoch: 29 May)

Event Time Altitude Azimuth Distance (km) Brightness Sun altitude
Rises 20:20:02 0° 347° (NNW) 3,507 8.2 -15.5°
Reaches altitude 10° 20:22:30 10° 348° (NNW) 2,566 7.4 -15.8°
Maximum altitude 20:28:23 85° 77° (ENE) 899 4.3 -16.6°
Enters shadow 20:32:41 19° 166° (SSE) 1,971 5.7 -17.1°
